Printer-friendly version
Follow the MPC on Twitter Follow the MPC on Facebook The MPC blog
Minor Planet Center

MPEC 2007-C60 : 2007 CO26

The following Minor Planet Electronic Circular may be linked-to from your own Web pages, but must not otherwise be redistributed electronically.

A form allowing access to any MPEC is at the bottom of this page.


Read MPEC 2007-C59 Read MPEC 2007-C61


M.P.E.C. 2007-C60                                Issued 2007 Feb. 13, 21:04 UT

     The Minor Planet Electronic Circulars contain information on unusual
         minor planets and routine data on comets.  They are published
   on behalf of Commission 20 of the International Astronomical Union by the
          Minor Planet Center, Smithsonian Astrophysical Observatory,
                          Cambridge, MA 02138, U.S.A.

             Prepared using the Tamkin Foundation Computer Network

                              MPC@CFA.HARVARD.EDU
          URL http://cfa-www.harvard.edu/iau/mpc.html  ISSN 1523-6714

                                   2007 CO26

Observations:
     K07C26O  C2007 02 13.22464 08 25 22.15 +62 34 28.6          18.4 V EC060703
     K07C26O  C2007 02 13.23135 08 25 28.48 +62 33 59.6          18.5 V EC060703
     K07C26O  C2007 02 13.23810 08 25 34.93 +62 33 31.0          18.5 V EC060703
     K07C26O  C2007 02 13.24488 08 25 41.44 +62 33 01.9          18.5 V EC060703
     K07C26O  C2007 02 13.25262 08 25 48.86 +62 32 29.5          18.3 V EC060703
     K07C26O  C2007 02 13.25348 08 25 49.65 +62 32 25.4          18.2 V EC060703
     K07C26O  C2007 02 13.25436 08 25 50.48 +62 32 21.9          18.5 V EC060703
     K07C26O  C2007 02 13.25523 08 25 51.34 +62 32 18.4          18.5 V EC060703
     K07C26O* C2007 02 13.28681 08 26 21.51 +62 30 00.9          18.4 V EC060703
     K07C26O  C2007 02 13.29502 08 26 29.36 +62 29 24.5          18.5 V EC060703
     K07C26O  C2007 02 13.30321 08 26 37.24 +62 28 47.8          18.2 V EC060703
     K07C26O  C2007 02 13.31141 08 26 44.98 +62 28 11.4          18.3 V EC060703
     K07C26O  C2007 02 13.82907 08 35 32.95 +61 48 40.5          18.4 V EC060595
     K07C26O  C2007 02 13.83166 08 35 35.40 +61 48 28.7          18.3 V EC060595
     K07C26O  C2007 02 13.83217 08 35 35.94 +61 48 26.2          18.5 V EC060595
     K07C26O  C2007 02 13.83475 08 35 38.34 +61 48 15.0          18.7 V EC060595

Observer details:
595 Farra d'Isonzo.  Observers L. Bittesini, G. Lombardi, E. Pettarin,
    F. Piani.  Measurers G. Lombardi, E. Pettarin.  0.40-m f/4.5 reflector
    + CCD.
703 Catalina Sky Survey.  Observer R. A. Kowalski.  Measurers E. C. Beshore,
    E. J. Christensen, G. J. Garradd, A. R. Gibbs, A. D. Grauer, R. E. Hill,
    R. A. Kowalski, S. M. Larson, R. H. McNaught.  0.68-m Schmidt + CCD.

Orbital elements:
2007 CO26                                                Earth MOID = 0.0953 AU
Epoch 2007 Apr. 10.0 TT = JDT 2454200.5                 MPC
M  12.09591              (2000.0)            P               Q
n   0.19886998     Peri.  137.70638     -0.71569062     -0.69840635
a   2.9068541      Node   357.98126     +0.60714495     -0.61936489
e   0.6372541      Incl.    6.41664     +0.34519841     -0.35863031
P   4.96           H   21.4           G   0.15           U   9
Residuals in seconds of arc
070213 703  0.5+  0.4+    070213 703  0.2-  0.1+    070213 595  0.1-  0.0
070213 703  0.1-  0.3-    070213 703  0.0   0.4+    070213 595  0.1-  0.0
070213 703  0.2-  0.3-    070213 703  0.0   0.3+    070213 595  0.3+  0.2-
070213 703  0.1-  0.5-    070213 703  0.1+  0.1+    070213 595  0.1-  0.3+
070213 703  0.1+  0.2+    070213 703  0.4+  0.3-
070213 703  0.2-  0.2-    070213 703  0.3-  0.1-

Ephemeris:
2007 CO26                a,e,i = 2.91, 0.64, 6                   q = 1.0544
Date    TT    R. A. (2000) Decl.     Delta      r     Elong.  Phase     V
2007 02 09    07 09.82   +65 55.4    0.114    1.054   124.0    50.9    18.7
2007 02 14    08 38.28   +61 34.9    0.104    1.057   130.0    45.6    18.3
2007 02 19    09 48.24   +52 46.6    0.0985   1.064   138.6    37.9    18.0
2007 02 24    10 34.60   +41 10.4    0.0992   1.075   148.5    28.7    17.8
2007 03 01    11 04.15   +29 15.0    0.107    1.090   158.2    19.7    17.7
2007 03 06    11 23.29   +18 50.5    0.120    1.109   166.3    12.2    17.8
2007 03 11    11 36.05   +10 35.4    0.138    1.131   172.6     6.5    17.9
2007 03 16    11 44.83   +04 20.7    0.161    1.156   177.5     2.1    18.0
2007 03 21    11 51.13   -00 17.9    0.187    1.183   177.8     1.8    18.4
2007 03 26    11 55.94   -03 44.7    0.217    1.213   174.2     4.7    18.9
2007 03 31    11 59.91   -06 18.8    0.250    1.246   170.7     7.5    19.4
2007 04 05    12 03.42   -08 14.3    0.285    1.280   167.2    10.0    19.9
2007 04 10    12 06.74   -09 41.6    0.324    1.315   163.6    12.4    20.3
2007 04 15    12 10.07   -10 48.4    0.365    1.352   160.1    14.7    20.7
2007 04 20    12 13.56   -11 40.4    0.410    1.390   156.5    16.7    21.1
2007 04 25    12 17.30   -12 22.2    0.459    1.430   152.9    18.7    21.4
2007 04 30    12 21.34   -12 56.9    0.510    1.469   149.4    20.4    21.8

Kyle E. Smalley              (C) Copyright 2007 MPC           M.P.E.C. 2007-C60

Read MPEC 2007-C59 Read MPEC 2007-C61


MPEC number:

Enter an MPEC number in one of the following forms:

  • 1997-B01 (the full form)
  • J97B01 (the packed version of the full form)
  • B01 (the abbreviated form)

Valid HTML 4.01!